When you browse on this site, cookies collect data to enhance your experience and personalize the content and advertising you see.
Visit our Privacy Policy to learn more. By continuing to use the site, you agree to this use of cookies and data.
  • In Italy
  • List of Countries
  • For 7 days
  • Water Temperature
  • Satellite Maps
  • Weather Map
  • Weather Widgets
  • user-avatar
    Login

    Hourly Weather Tutagachevo

    Today, 18 January, Friday

    Time Temperature Precipitation Wind Pressure Humidity
    00:00 -17°C° 0 mm 3 mps 749 mmHg 96%
    01:00 -17°C° 0 mm 3 mps 749 mmHg 96%
    02:00 -17°C° 0 mm 3 mps 750 mmHg 96%
    03:00 -18°C° 0 mm 4 mps 750 mmHg 96%
    04:00 -18°C° 0 mm 4 mps 750 mmHg 95%
    05:00 -17°C° 0 mm 4 mps 749 mmHg 95%
    06:00 -18°C° 0 mm 5 mps 749 mmHg 94%
    07:00 -17°C° 0 mm 5 mps 749 mmHg 93%
    08:00 -17°C° 0 mm 6 mps 749 mmHg 91%
    09:00 -17°C° 0 mm 7 mps 748 mmHg 90%
    10:00 -17°C° 0 mm 7 mps 748 mmHg 88%
    11:00 -16°C° 0 mm 8 mps 747 mmHg 88%
    12:00 -15°C° 0 mm 8 mps 747 mmHg 87%
    13:00 -14°C° 0 mm 9 mps 747 mmHg 86%
    14:00 -13°C° 0.4 mm 8 mps 746 mmHg 88%
    15:00 -12°C° 0.4 mm 8 mps 746 mmHg 90%
    16:00 -11°C° 0 mm 7 mps 746 mmHg 91%
    17:00 -10°C° 0.1 mm 6 mps 747 mmHg 91%
    18:00 -11°C° 0.1 mm 6 mps 747 mmHg 91%
    19:00 -11°C° 0.1 mm 6 mps 747 mmHg 91%
    20:00 -11°C° 0 mm 6 mps 748 mmHg 92%
    21:00 -11°C° 0 mm 6 mps 748 mmHg 92%
    22:00 -11°C° 0 mm 6 mps 748 mmHg 93%
    23:00 -11°C° 0 mm 6 mps 748 mmHg 93%

    Tomorrow, 19 January, Saturday

    Time Temperature Precipitation Wind Pressure Humidity
    00:00 -11°C° 0 mm 5 mps 749 mmHg 93%
    01:00 -10°C° 0 mm 5 mps 749 mmHg 93%
    02:00 -10°C° 0.1 mm 5 mps 749 mmHg 94%
    03:00 -11°C° 0.1 mm 5 mps 749 mmHg 94%
    04:00 -11°C° 0.1 mm 5 mps 749 mmHg 94%
    05:00 -11°C° 0 mm 5 mps 749 mmHg 94%
    06:00 -12°C° 0 mm 5 mps 749 mmHg 95%
    07:00 -12°C° 0 mm 5 mps 748 mmHg 95%
    08:00 -12°C° 0 mm 5 mps 748 mmHg 95%
    09:00 -12°C° 0 mm 6 mps 748 mmHg 95%
    10:00 -12°C° 0 mm 6 mps 748 mmHg 95%
    11:00 -11°C° 0 mm 6 mps 748 mmHg 94%
    12:00 -11°C° 0 mm 6 mps 747 mmHg 94%
    13:00 -11°C° 0 mm 7 mps 747 mmHg 94%
    14:00 -10°C° 0.1 mm 6 mps 747 mmHg 93%
    15:00 -9°C° 0.1 mm 6 mps 747 mmHg 93%
    16:00 -8°C° 0.1 mm 6 mps 747 mmHg 92%
    17:00 -8°C° 0.1 mm 6 mps 746 mmHg 93%
    18:00 -8°C° 0.1 mm 6 mps 746 mmHg 93%
    19:00 -6°C° 0.1 mm 5 mps 746 mmHg 93%
    20:00 -7°C° 0.1 mm 5 mps 746 mmHg 94%
    21:00 -7°C° 0.1 mm 5 mps 746 mmHg 94%
    22:00 -7°C° 0.1 mm 4 mps 746 mmHg 95%
    23:00 -7°C° 0.3 mm 4 mps 746 mmHg 95%

    Day after tomorrow, 20 January, Sunday

    Time Temperature Precipitation Wind Pressure Humidity
    00:00 -7°C° 0.3 mm 4 mps 745 mmHg 95%
    01:00 -7°C° 0.3 mm 4 mps 745 mmHg 95%
    02:00 -7°C° 0.6 mm 4 mps 745 mmHg 95%
    03:00 -7°C° 0.6 mm 4 mps 745 mmHg 95%
    04:00 -7°C° 0.6 mm 5 mps 744 mmHg 95%
    05:00 -7°C° 0.4 mm 4 mps 744 mmHg 95%
    06:00 -5°C° 0.4 mm 4 mps 744 mmHg 95%
    07:00 -5°C° 0.4 mm 4 mps 744 mmHg 95%
    08:00 -7°C° 0.2 mm 4 mps 745 mmHg 95%
    09:00 -8°C° 0.2 mm 5 mps 745 mmHg 95%
    10:00 -8°C° 0.2 mm 5 mps 745 mmHg 94%
    11:00 -11°C° 0 mm 5 mps 746 mmHg 93%
    12:00 -12°C° 0 mm 5 mps 746 mmHg 91%
    13:00 -12°C° 0 mm 4 mps 746 mmHg 90%
    14:00 -15°C° 0 mm 4 mps 747 mmHg 92%
    15:00 -16°C° 0 mm 4 mps 748 mmHg 94%
    16:00 -16°C° 0 mm 3 mps 748 mmHg 96%
    17:00 -17°C° 0 mm 3 mps 749 mmHg 96%
    18:00 -17°C° 0 mm 3 mps 750 mmHg 96%
    19:00 -17°C° 0 mm 3 mps 750 mmHg 96%
    20:00 -17°C° 0 mm 3 mps 751 mmHg 96%
    21:00 -17°C° 0 mm 3 mps 751 mmHg 97%
    22:00 -17°C° 0 mm 3 mps 751 mmHg 97%
    23:00 -17°C° 0 mm 3 mps 751 mmHg 97%

    21 January, Monday

    Time Temperature Precipitation Wind Pressure Humidity
    00:00 -18°C° 0 mm 3 mps 752 mmHg 97%
    01:00 -19°C° 0 mm 4 mps 752 mmHg 97%
    02:00 -19°C° 0 mm 4 mps 752 mmHg 97%
    03:00 -20°C° 0 mm 5 mps 752 mmHg 97%
    04:00 -20°C° 0 mm 5 mps 752 mmHg 96%
    05:00 -20°C° 0 mm 6 mps 752 mmHg 95%
    06:00 -20°C° 0 mm 6 mps 751 mmHg 95%
    07:00 -18°C° 0 mm 6 mps 751 mmHg 94%
    08:00 -19°C° 0 mm 7 mps 751 mmHg 93%
    09:00 -18°C° 0 mm 7 mps 751 mmHg 92%
    10:00 -18°C° 0 mm 7 mps 751 mmHg 91%
    11:00 -17°C° 0.1 mm 7 mps 751 mmHg 90%
    12:00 -17°C° 0.1 mm 7 mps 751 mmHg 89%
    13:00 -15°C° 0.1 mm 7 mps 750 mmHg 88%
    14:00 -15°C° 0.1 mm 7 mps 750 mmHg 88%
    15:00 -15°C° 0.1 mm 7 mps 750 mmHg 88%
    16:00 -17°C° 0.1 mm 7 mps 750 mmHg 88%
    17:00 -17°C° 0.2 mm 7 mps 750 mmHg 89%
    18:00 -17°C° 0.2 mm 7 mps 750 mmHg 90%
    19:00 -15°C° 0.2 mm 7 mps 750 mmHg 91%
    20:00 -15°C° 0.2 mm 7 mps 749 mmHg 91%
    21:00 -15°C° 0.2 mm 7 mps 749 mmHg 91%
    22:00 -15°C° 0.2 mm 7 mps 749 mmHg 91%
    23:00 -15°C° 0.2 mm 7 mps 749 mmHg 91%

    22 January, Tuesday

    Time Temperature Precipitation Wind Pressure Humidity
    00:00 -15°C° 0.2 mm 7 mps 749 mmHg 91%
    01:00 -15°C° 0.2 mm 6 mps 749 mmHg 92%
    02:00 -15°C° 0.2 mm 6 mps 749 mmHg 92%
    03:00 -15°C° 0.2 mm 6 mps 748 mmHg 92%
    04:00 -14°C° 0.2 mm 5 mps 748 mmHg 93%
    05:00 -14°C° 0.2 mm 5 mps 748 mmHg 93%
    06:00 -14°C° 0.2 mm 5 mps 748 mmHg 93%
    07:00 -14°C° 0.2 mm 5 mps 747 mmHg 94%
    08:00 -14°C° 0.1 mm 4 mps 747 mmHg 94%
    09:00 -14°C° 0.1 mm 4 mps 747 mmHg 94%
    10:00 -14°C° 0.1 mm 4 mps 747 mmHg 94%
    11:00 -14°C° 0.1 mm 4 mps 748 mmHg 94%
    12:00 -13°C° 0.1 mm 3 mps 748 mmHg 93%
    13:00 -12°C° 0.1 mm 3 mps 748 mmHg 93%
    14:00 -13°C° 0 mm 3 mps 748 mmHg 93%
    15:00 -14°C° 0 mm 3 mps 748 mmHg 94%
    16:00 -15°C° 0 mm 3 mps 749 mmHg 95%
    17:00 -17°C° 0 mm 3 mps 749 mmHg 96%
    18:00 -19°C° 0 mm 3 mps 750 mmHg 97%
    19:00 -23°C° 0 mm 3 mps 750 mmHg 99%
    20:00 -24°C° 0 mm 3 mps 750 mmHg 99%
    21:00 -24°C° 0 mm 2 mps 751 mmHg 99%
    22:00 -25°C° 0 mm 2 mps 751 mmHg 99%
    23:00 -26°C° 0 mm 2 mps 752 mmHg 99%

    23 January, Wednesday

    Time Temperature Precipitation Wind Pressure Humidity
    00:00 -26°C° 0 mm 2 mps 752 mmHg 99%
    01:00 -26°C° 0 mm 2 mps 753 mmHg 99%
    02:00 -27°C° 0 mm 2 mps 753 mmHg 99%
    03:00 -27°C° 0 mm 2 mps 754 mmHg 99%
    04:00 -27°C° 0 mm 2 mps 754 mmHg 99%
    05:00 -28°C° 0 mm 2 mps 755 mmHg 99%
    06:00 -29°C° 0 mm 2 mps 755 mmHg 99%
    07:00 -29°C° 0 mm 2 mps 756 mmHg 99%
    08:00 -29°C° 0 mm 2 mps 756 mmHg 99%
    09:00 -29°C° 0 mm 2 mps 757 mmHg 98%
    10:00 -29°C° 0 mm 2 mps 757 mmHg 98%
    11:00 -29°C° 0 mm 2 mps 757 mmHg 98%
    12:00 -28°C° 0 mm 2 mps 758 mmHg 97%
    13:00 -27°C° 0 mm 2 mps 758 mmHg 97%
    14:00 -27°C° 0 mm 2 mps 758 mmHg 97%
    15:00 -28°C° 0 mm 2 mps 758 mmHg 97%
    16:00 -28°C° 0 mm 2 mps 759 mmHg 98%
    17:00 -29°C° 0 mm 2 mps 759 mmHg 98%
    18:00 -29°C° 0 mm 2 mps 760 mmHg 98%
    19:00 -30°C° 0 mm 2 mps 760 mmHg 98%
    20:00 -30°C° 0 mm 2 mps 760 mmHg 98%
    21:00 -30°C° 0 mm 2 mps 760 mmHg 98%
    22:00 -30°C° 0 mm 2 mps 761 mmHg 99%
    23:00 -30°C° 0 mm 2 mps 761 mmHg 98%
    Show more